| time (UTC) | temp F | wind direction | speed knots | gust knots | rain 1hr in | rain 24hr in | rain mn in | humidity % | barometer mb |
| 20260508205021 | 73 | 232 | 4.3 | 9.6 | 0.00 | 0.00 | 0.00 | 50 | 1005.3 |
| 20260508204539 | 73 | 256 | 6.1 | 12.2 | 0.00 | 0.00 | 0.00 | 52 | 1005.4 |
| 20260508204021 | 73 | 238 | 3.5 | 13.9 | 0.00 | 0.00 | 0.00 | 51 | 1005.1 |
| 20260508203522 | 73 | 257 | 8.7 | 13.9 | 0.00 | 0.00 | 0.00 | 51 | 1004.9 |
| 20260508203040 | 73 | 277 | 6.1 | 13.9 | 0.00 | 0.00 | 0.00 | 53 | 1005.0 |
| 20260508202523 | 73 | 282 | 7.0 | 11.3 | 0.00 | 0.00 | 0.00 | 52 | 1005.1 |
| 20260508202022 | 72 | 299 | 5.2 | 11.3 | 0.00 | 0.00 | 0.00 | 53 | 1004.9 |
| 20260508201540 | 72 | 280 | 6.1 | 10.4 | 0.00 | 0.00 | 0.00 | 53 | 1005.0 |
| 20260508201022 | 72 | 287 | 4.3 | 10.4 | 0.00 | 0.00 | 0.00 | 52 | 1005.2 |
| 20260508200522 | 72 | 274 | 6.1 | 11.3 | 0.00 | 0.00 | 0.00 | 51 | 1005.5 |
| 20260508200039 | 73 | 286 | 6.1 | 13.0 | 0.00 | 0.00 | 0.00 | 51 | 1005.4 |
| 20260508195521 | 73 | 301 | 7.0 | 13.0 | 0.00 | 0.00 | 0.00 | 50 | 1005.3 |
| 20260508195022 | 74 | 308 | 6.1 | 12.2 | 0.00 | 0.00 | 0.00 | 51 | 1005.3 |
| 20260508194546 | 74 | 336 | 7.0 | 12.2 | 0.00 | 0.00 | 0.00 | 51 | 1005.6 |
| 20260508194022 | 74 | 250 | 7.8 | 12.2 | 0.00 | 0.00 | 0.00 | 50 | 1005.5 |
| 20260508193521 | 74 | 286 | 4.3 | 12.2 | 0.00 | 0.00 | 0.00 | 50 | 1005.5 |
| 20260508193039 | 74 | 238 | 5.2 | 9.6 | 0.00 | 0.00 | 0.00 | 51 | 1005.6 |
| 20260508192522 | 74 | 244 | 3.5 | 9.6 | 0.00 | 0.00 | 0.00 | 51 | 1005.2 |
| 20260508192022 | 74 | 229 | 4.3 | 9.6 | 0.00 | 0.00 | 0.00 | 50 | 1005.3 |
| 20260508191545 | 75 | 257 | 4.3 | 8.7 | 0.00 | 0.00 | 0.00 | 48 | 1005.4 |
| 20260508191022 | 75 | 261 | 3.5 | 8.7 | 0.00 | 0.00 | 0.00 | 48 | 1005.3 |
| 20260508190522 | 75 | 257 | 3.5 | 14.8 | 0.00 | 0.00 | 0.00 | 49 | 1005.1 |
| 20260508190100 | 75 | 206 | 4.3 | 14.8 | 0.00 | 0.00 | 0.00 | 48 | 1005.1 |
| 20260508185522 | 76 | 237 | 7.0 | 14.8 | 0.00 | 0.00 | 0.00 | 45 | 1005.6 |
| 20260508185025 | 76 | 287 | 7.0 | 12.2 | 0.00 | 0.00 | 0.00 | 44 | 1005.5 |
| 20260508184541 | 77 | 238 | 7.0 | 13.9 | 0.00 | 0.00 | 0.00 | 44 | 1005.4 |
| 20260508184022 | 78 | 232 | 7.8 | 15.6 | 0.00 | 0.00 | 0.00 | 43 | 1005.9 |
| 20260508183521 | 78 | 257 | 9.6 | 16.5 | 0.00 | 0.00 | 0.00 | 42 | 1005.7 |
| 20260508183042 | 79 | 225 | 8.7 | 16.5 | 0.00 | 0.00 | 0.00 | 43 | 1005.8 |
| 20260508182521 | 79 | 249 | 7.0 | 17.4 | 0.00 | 0.00 | 0.00 | 43 | 1006.1 |
| 20260508182021 | 78 | 295 | 7.0 | 17.4 | 0.00 | 0.00 | 0.00 | 45 | 1006.1 |
| 20260508181544 | 77 | 242 | 10.4 | 17.4 | 0.00 | 0.00 | 0.00 | 44 | 1006.4 |
| 20260508181021 | 76 | 239 | 9.6 | 16.5 | 0.00 | 0.00 | 0.00 | 49 | 1006.4 |
| 20260508180524 | 75 | 272 | 9.6 | 16.5 | 0.00 | 0.00 | 0.00 | 48 | 1006.4 |
| 20260508180038 | 75 | 249 | 8.7 | 16.5 | 0.00 | 0.00 | 0.00 | 47 | 1006.5 |
| 20260508175522 | 75 | 269 | 9.6 | 18.2 | 0.00 | 0.00 | 0.00 | 46 | 1006.5 |
| 20260508175024 | 76 | 243 | 8.7 | 18.2 | 0.00 | 0.00 | 0.00 | 47 | 1006.7 |
| 20260508174541 | 76 | 269 | 9.6 | 21.7 | 0.00 | 0.00 | 0.00 | 47 | 1006.5 |
| 20260508174022 | 75 | 231 | 12.2 | 21.7 | 0.00 | 0.00 | 0.00 | 47 | 1006.6 |
| 20260508173521 | 75 | 246 | 8.7 | 16.5 | 0.00 | 0.00 | 0.00 | 48 | 1006.5 |
| 20260508173038 | 75 | 239 | 7.0 | 16.5 | 0.00 | 0.00 | 0.00 | 48 | 1006.5 |
| 20260508172525 | 75 | 231 | 7.8 | 15.6 | 0.00 | 0.00 | 0.00 | 48 | 1006.4 |
| 20260508172022 | 75 | 244 | 6.1 | 17.4 | 0.00 | 0.00 | 0.00 | 48 | 1006.5 |
| 20260508171544 | 76 | 254 | 7.0 | 17.4 | 0.00 | 0.00 | 0.00 | 47 | 1006.5 |
| 20260508171021 | 76 | 259 | 10.4 | 16.5 | 0.00 | 0.00 | 0.00 | 48 | 1006.5 |
| 20260508170521 | 76 | 223 | 9.6 | 16.5 | 0.00 | 0.00 | 0.00 | 47 | 1006.5 |
| 20260508170037 | 75 | 254 | 7.0 | 16.5 | 0.00 | 0.00 | 0.00 | 49 | 1006.5 |
| 20260508165521 | 75 | 221 | 8.7 | 16.5 | 0.00 | 0.00 | 0.00 | 50 | 1006.6 |
| 20260508165021 | 74 | 196 | 7.0 | 15.6 | 0.00 | 0.00 | 0.00 | 51 | 1006.6 |
| 20260508164537 | 73 | 220 | 6.1 | 12.2 | 0.00 | 0.00 | 0.00 | 50 | 1006.6 |
| 20260508164022 | 73 | 224 | 6.1 | 13.9 | 0.00 | 0.00 | 0.00 | 52 | 1006.8 |
| 20260508163522 | 73 | 247 | 8.7 | 17.4 | 0.00 | 0.00 | 0.00 | 51 | 1006.7 |
| 20260508163050 | 74 | 191 | 7.8 | 17.4 | 0.00 | 0.00 | 0.00 | 50 | 1006.9 |
| 20260508162525 | 74 | 204 | 7.8 | 17.4 | 0.00 | 0.00 | 0.00 | 50 | 1007.0 |
| 20260508162021 | 74 | 188 | 7.8 | 13.9 | 0.00 | 0.00 | 0.00 | 49 | 1007.0 |
| 20260508161552 | 75 | 187 | 6.1 | 13.9 | 0.00 | 0.00 | 0.00 | 51 | 1006.9 |
| 20260508161022 | 73 | 231 | 7.0 | 13.9 | 0.00 | 0.00 | 0.00 | 52 | 1006.9 |
| 20260508160525 | 73 | 225 | 8.7 | 14.8 | 0.00 | 0.00 | 0.00 | 52 | 1006.9 |
| 20260508160039 | 73 | 248 | 7.8 | 14.8 | 0.00 | 0.00 | 0.00 | 53 | 1007.1 |
| 20260508155522 | 73 | 178 | 5.2 | 13.9 | 0.00 | 0.00 | 0.00 | 54 | 1007.2 |
| 20260508155023 | 72 | 240 | 7.8 | 16.5 | 0.00 | 0.00 | 0.00 | 54 | 1007.2 |
| 20260508154538 | 72 | 237 | 7.0 | 16.5 | 0.00 | 0.00 | 0.00 | 55 | 1007.3 |
| 20260508154024 | 72 | 225 | 7.0 | 16.5 | 0.00 | 0.00 | 0.00 | 55 | 1007.4 |
| 20260508153522 | 71 | 223 | 7.0 | 15.6 | 0.00 | 0.00 | 0.00 | 55 | 1007.4 |
| 20260508153052 | 72 | 234 | 9.6 | 15.6 | 0.00 | 0.00 | 0.00 | 54 | 1007.4 |
| 20260508152521 | 72 | 209 | 7.0 | 15.6 | 0.00 | 0.00 | 0.00 | 56 | 1007.3 |
| 20260508152022 | 71 | 240 | 7.8 | 13.9 | 0.00 | 0.00 | 0.00 | 57 | 1007.3 |
| 20260508151538 | 70 | 234 | 7.0 | 13.9 | 0.00 | 0.00 | 0.00 | 59 | 1007.5 |
| 20260508151025 | 69 | 180 | 6.1 | 17.4 | 0.00 | 0.00 | 0.00 | 59 | 1007.6 |
| 20260508150522 | 69 | 232 | 8.7 | 17.4 | 0.00 | 0.00 | 0.00 | 58 | 1007.7 |
| 20260508150037 | 69 | 273 | 5.2 | 17.4 | 0.00 | 0.00 | 0.00 | 58 | 1007.7 |
| 20260508145521 | 69 | 242 | 9.6 | 17.4 | 0.00 | 0.00 | 0.00 | 58 | 1007.8 |
| 20260508145023 | 69 | 202 | 7.0 | 19.1 | 0.00 | 0.00 | 0.00 | 58 | 1007.8 |
| 20260508144537 | 69 | 267 | 9.6 | 19.1 | 0.00 | 0.00 | 0.00 | 58 | 1007.8 |
| 20260508144023 | 69 | 215 | 7.8 | 16.5 | 0.00 | 0.00 | 0.00 | 59 | 1007.8 |
| 20260508143524 | 68 | 263 | 6.1 | 19.1 | 0.00 | 0.00 | 0.00 | 60 | 1008.0 |
| 20260508143057 | 68 | 224 | 9.6 | 19.1 | 0.00 | 0.00 | 0.00 | 61 | 1008.1 |
| 20260508142522 | 67 | 204 | 8.7 | 16.5 | 0.00 | 0.00 | 0.00 | 61 | 1008.1 |
| 20260508142023 | 67 | 237 | 7.0 | 18.2 | 0.00 | 0.00 | 0.00 | 62 | 1008.0 |
| 20260508141540 | 67 | 224 | 7.8 | 20.0 | 0.00 | 0.00 | 0.00 | 63 | 1008.0 |
| 20260508141022 | 66 | 273 | 9.6 | 20.0 | 0.00 | 0.00 | 0.00 | 64 | 1008.0 |
| 20260508140522 | 65 | 225 | 7.0 | 19.1 | 0.00 | 0.00 | 0.00 | 66 | 1008.0 |
| 20260508140039 | 64 | 220 | 7.8 | 13.9 | 0.00 | 0.00 | 0.00 | 67 | 1008.2 |
| 20260508135523 | 64 | 257 | 6.1 | 13.0 | 0.00 | 0.00 | 0.00 | 67 | 1008.3 |
| 20260508135022 | 63 | 189 | 7.0 | 13.9 | 0.00 | 0.00 | 0.00 | 68 | 1008.1 |
| 20260508134539 | 63 | 245 | 5.2 | 13.9 | 0.00 | 0.00 | 0.00 | 69 | 1008.0 |
| 20260508134023 | 62 | 213 | 4.3 | 14.8 | 0.00 | 0.00 | 0.00 | 72 | 1008.0 |
| 20260508133522 | 61 | 207 | 7.8 | 14.8 | 0.00 | 0.00 | 0.00 | 72 | 1008.0 |
| 20260508133037 | 60 | 219 | 6.1 | 14.8 | 0.00 | 0.00 | 0.00 | 73 | 1008.0 |
| 20260508132522 | 59 | 200 | 7.0 | 14.8 | 0.00 | 0.00 | 0.00 | 75 | 1008.0 |
| 20260508132022 | 58 | 209 | 6.1 | 10.4 | 0.00 | 0.00 | 0.00 | 77 | 1007.9 |
| 20260508131537 | 57 | 204 | 5.2 | 11.3 | 0.00 | 0.00 | 0.00 | 79 | 1008.0 |
| 20260508131026 | 56 | 208 | 4.3 | 11.3 | 0.00 | 0.00 | 0.00 | 80 | 1008.1 |
| 20260508130522 | 55 | 221 | 4.3 | 8.7 | 0.00 | 0.00 | 0.00 | 80 | 1008.0 |
| 20260508130042 | 55 | 194 | 5.2 | 9.6 | 0.00 | 0.00 | 0.00 | 80 | 1007.8 |
| 20260508125522 | 54 | 188 | 4.3 | 9.6 | 0.00 | 0.00 | 0.00 | 81 | 1007.9 |
| 20260508125022 | 53 | 184 | 5.2 | 8.7 | 0.00 | 0.00 | 0.00 | 82 | 1007.9 |
| 20260508124537 | 53 | 180 | 4.3 | 8.7 | 0.00 | 0.00 | 0.00 | 83 | 1007.9 |
| 20260508124021 | 52 | 169 | 4.3 | 7.8 | 0.00 | 0.00 | 0.00 | 83 | 1008.0 |
| 20260508123521 | 52 | 174 | 4.3 | 7.0 | 0.00 | 0.00 | 0.00 | 83 | 1008.0 |
| 20260508123042 | 51 | 210 | 2.6 | 6.1 | 0.00 | 0.00 | 0.00 | 83 | 1008.0 |
| 20260508122547 | 51 | 186 | 3.5 | 7.0 | 0.00 | 0.00 | 0.00 | 83 | 1007.9 |
| 20260508122022 | 51 | 165 | 4.3 | 7.0 | 0.00 | 0.00 | 0.00 | 83 | 1007.8 |
| 20260508121537 | 50 | 173 | 3.5 | 6.1 | 0.00 | 0.00 | 0.00 | 83 | 1007.8 |
| 20260508121022 | 50 | 162 | 3.5 | 5.2 | 0.00 | 0.00 | 0.00 | 83 | 1007.8 |
| 20260508120524 | 50 | 191 | 3.5 | 6.1 | 0.00 | 0.00 | 0.00 | 82 | 1007.8 |
| 20260508120037 | 50 | 186 | 3.5 | 7.0 | 0.00 | 0.00 | 0.00 | 82 | 1007.8 |
| 20260508115522 | 50 | 180 | 4.3 | 7.0 | 0.00 | 0.00 | 0.00 | 82 | 1007.9 |
| 20260508115022 | 50 | 209 | 3.5 | 7.0 | 0.00 | 0.00 | 0.00 | 81 | 1007.9 |
| 20260508114537 | 50 | 178 | 3.5 | 8.7 | 0.00 | 0.00 | 0.00 | 81 | 1007.9 |
| 20260508114022 | 50 | 180 | 4.3 | 8.7 | 0.00 | 0.00 | 0.00 | 80 | 1007.9 |
| 20260508113522 | 50 | 181 | 4.3 | 7.0 | 0.00 | 0.00 | 0.00 | 79 | 1007.9 |
| 20260508113038 | 50 | 165 | 4.3 | 7.0 | 0.00 | 0.00 | 0.00 | 79 | 1007.8 |
| 20260508112524 | 50 | 190 | 4.3 | 7.0 | 0.00 | 0.00 | 0.00 | 78 | 1007.8 |
| 20260508112022 | 50 | 156 | 4.3 | 6.1 | 0.00 | 0.00 | 0.00 | 78 | 1007.8 |
| 20260508111541 | 50 | 161 | 4.3 | 6.1 | 0.00 | 0.00 | 0.00 | 78 | 1007.9 |
| 20260508111024 | 50 | 164 | 3.5 | 5.2 | 0.00 | 0.00 | 0.00 | 78 | 1007.9 |
| 20260508110521 | 50 | 164 | 3.5 | 5.2 | 0.00 | 0.00 | 0.00 | 78 | 1007.9 |
| 20260508110038 | 50 | 165 | 3.5 | 4.3 | 0.00 | 0.00 | 0.00 | 78 | 1007.9 |
| 20260508105521 | 50 | 175 | 2.6 | 5.2 | 0.00 | 0.00 | 0.00 | 78 | 1008.0 |
| 20260508105024 | 50 | 174 | 2.6 | 5.2 | 0.00 | 0.00 | 0.00 | 78 | 1008.0 |
| 20260508104538 | 50 | 180 | 3.5 | 6.1 | 0.00 | 0.00 | 0.00 | 78 | 1007.8 |
| 20260508104022 | 50 | 186 | 2.6 | 6.1 | 0.00 | 0.00 | 0.00 | 78 | 1007.7 |
| 20260508103522 | 50 | 190 | 3.5 | 7.0 | 0.00 | 0.00 | 0.00 | 78 | 1007.7 |
| 20260508103045 | 50 | 209 | 4.3 | 7.8 | 0.00 | 0.00 | 0.00 | 77 | 1007.8 |
| 20260508102523 | 50 | 210 | 3.5 | 7.8 | 0.00 | 0.00 | 0.00 | 77 | 1007.7 |
| 20260508102024 | 50 | 234 | 1.7 | 6.1 | 0.00 | 0.00 | 0.00 | 77 | 1007.8 |
| 20260508101536 | 50 | 178 | 3.5 | 6.1 | 0.00 | 0.00 | 0.00 | 76 | 1007.6 |
| 20260508101022 | 50 | 195 | 4.3 | 6.1 | 0.00 | 0.00 | 0.00 | 75 | 1007.5 |
| 20260508100523 | 50 | 175 | 3.5 | 5.2 | 0.00 | 0.00 | 0.00 | 75 | 1007.6 |
| 20260508100057 | 50 | 194 | 3.5 | 7.0 | 0.00 | 0.00 | 0.00 | 75 | 1007.6 |
| 20260508095527 | 50 | 178 | 3.5 | 7.0 | 0.00 | 0.00 | 0.00 | 74 | 1007.6 |
| 20260508095023 | 51 | 184 | 4.3 | 7.0 | 0.00 | 0.00 | 0.00 | 73 | 1007.6 |
| 20260508094542 | 51 | 191 | 4.3 | 7.0 | 0.00 | 0.00 | 0.00 | 72 | 1007.6 |
| 20260508094019 | 51 | 185 | 4.3 | 6.1 | 0.00 | 0.00 | 0.00 | 72 | 1007.6 |
| 20260508093523 | 51 | 165 | 3.5 | 5.2 | 0.00 | 0.00 | 0.00 | 72 | 1007.7 |
| 20260508093039 | 52 | 179 | 3.5 | 5.2 | 0.00 | 0.00 | 0.00 | 71 | 1007.8 |
| 20260508092520 | 52 | 171 | 2.6 | 6.1 | 0.00 | 0.00 | 0.00 | 71 | 1007.8 |
| 20260508092020 | 52 | 180 | 3.5 | 7.0 | 0.00 | 0.00 | 0.00 | 71 | 1007.6 |
| 20260508091552 | 52 | 190 | 3.5 | 7.0 | 0.00 | 0.00 | 0.00 | 70 | 1007.7 |
| 20260508091022 | 52 | 172 | 4.3 | 7.0 | 0.00 | 0.00 | 0.00 | 70 | 1007.6 |
| 20260508090521 | 52 | 177 | 4.3 | 7.8 | 0.00 | 0.00 | 0.00 | 70 | 1007.6 |
| 20260508090043 | 53 | 200 | 4.3 | 7.8 | 0.00 | 0.00 | 0.00 | 69 | 1007.6 |
| 20260508085520 | 53 | 182 | 3.5 | 7.0 | 0.00 | 0.00 | 0.00 | 69 | 1007.7 |
| 20260508085023 | 53 | 164 | 4.3 | 7.0 | 0.00 | 0.00 | 0.00 | 69 | 1007.7 |
| 20260508084539 | 53 | 215 | 4.3 | 6.1 | 0.00 | 0.00 | 0.00 | 69 | 1007.7 |
| 20260508084024 | 53 | 206 | 3.5 | 7.0 | 0.00 | 0.00 | 0.00 | 69 | 1007.6 |
| 20260508083523 | 53 | 217 | 3.5 | 8.7 | 0.00 | 0.00 | 0.00 | 69 | 1007.6 |
| 20260508083040 | 53 | 212 | 4.3 | 8.7 | 0.00 | 0.00 | 0.00 | 68 | 1007.7 |
| 20260508082521 | 53 | 217 | 4.3 | 7.8 | 0.00 | 0.00 | 0.00 | 68 | 1007.7 |
| 20260508082020 | 53 | 165 | 4.3 | 7.8 | 0.00 | 0.00 | 0.00 | 68 | 1007.7 |
| 20260508081553 | 53 | 202 | 4.3 | 7.0 | 0.00 | 0.00 | 0.00 | 67 | 1007.7 |
| 20260508081024 | 53 | 191 | 4.3 | 7.0 | 0.00 | 0.00 | 0.00 | 66 | 1007.6 |
| 20260508080522 | 54 | 181 | 3.5 | 6.1 | 0.00 | 0.00 | 0.00 | 66 | 1007.7 |
| 20260508080040 | 54 | 201 | 3.5 | 6.1 | 0.00 | 0.00 | 0.00 | 66 | 1007.7 |
| 20260508075521 | 54 | 203 | 2.6 | 7.0 | 0.00 | 0.00 | 0.00 | 66 | 1007.7 |
| 20260508075020 | 54 | 173 | 3.5 | 7.0 | 0.00 | 0.00 | 0.00 | 65 | 1007.9 |
| 20260508074538 | 54 | 191 | 3.5 | 7.0 | 0.00 | 0.00 | 0.00 | 65 | 1007.9 |
| 20260508074022 | 54 | 205 | 4.3 | 7.0 | 0.00 | 0.00 | 0.00 | 65 | 1007.9 |
| 20260508073523 | 54 | 241 | 4.3 | 7.0 | 0.00 | 0.00 | 0.00 | 65 | 1008.1 |
| 20260508073044 | 54 | 202 | 3.5 | 6.1 | 0.00 | 0.00 | 0.00 | 65 | 1008.0 |
| 20260508072520 | 55 | 192 | 3.5 | 7.0 | 0.00 | 0.00 | 0.00 | 65 | 1008.0 |
| 20260508072026 | 55 | 194 | 3.5 | 7.8 | 0.00 | 0.00 | 0.00 | 64 | 1008.0 |
| 20260508071539 | 55 | 198 | 3.5 | 7.8 | 0.00 | 0.00 | 0.00 | 64 | 1008.0 |
| 20260508071020 | 55 | 178 | 3.5 | 7.0 | 0.00 | 0.00 | 0.00 | 64 | 1008.0 |
| 20260508070523 | 55 | 180 | 3.5 | 7.8 | 0.00 | 0.00 | 0.00 | 64 | 1007.9 |
| 20260508070040 | 55 | 195 | 3.5 | 7.8 | 0.00 | 0.00 | 0.00 | 64 | 1008.0 |
| 20260508065520 | 55 | 171 | 4.3 | 9.6 | 0.00 | 0.00 | 0.00 | 64 | 1008.1 |
| 20260508065021 | 55 | 211 | 5.2 | 9.6 | 0.00 | 0.00 | 0.00 | 64 | 1008.0 |
| 20260508064540 | 55 | 188 | 5.2 | 9.6 | 0.00 | 0.00 | 0.00 | 64 | 1008.1 |
| 20260508064023 | 55 | 183 | 5.2 | 10.4 | 0.00 | 0.00 | 0.00 | 64 | 1008.0 |
| 20260508063523 | 55 | 184 | 6.1 | 10.4 | 0.00 | 0.00 | 0.00 | 65 | 1008.0 |
| 20260508063039 | 55 | 186 | 6.1 | 9.6 | 0.00 | 0.00 | 0.00 | 65 | 1008.0 |
| 20260508062522 | 55 | 196 | 5.2 | 9.6 | 0.00 | 0.00 | 0.00 | 64 | 1008.0 |
| 20260508062022 | 55 | 186 | 5.2 | 8.7 | 0.00 | 0.00 | 0.00 | 64 | 1008.0 |
| 20260508061538 | 55 | 163 | 5.2 | 10.4 | 0.00 | 0.00 | 0.00 | 64 | 1008.1 |
| 20260508061022 | 55 | 180 | 5.2 | 10.4 | 0.00 | 0.00 | 0.00 | 64 | 1008.1 |
| 20260508060524 | 55 | 192 | 4.3 | 8.7 | 0.00 | 0.00 | 0.00 | 63 | 1008.1 |
| 20260508060053 | 55 | 198 | 5.2 | 8.7 | 0.00 | 0.00 | 0.00 | 62 | 1008.1 |
| 20260508055522 | 55 | 196 | 5.2 | 8.7 | 0.00 | 0.00 | 0.00 | 62 | 1008.1 |
| 20260508055022 | 56 | 197 | 5.2 | 8.7 | 0.00 | 0.00 | 0.00 | 61 | 1008.1 |
| 20260508054610 | 56 | 166 | 5.2 | 8.7 | 0.00 | 0.00 | 0.00 | 61 | 1008.2 |
| 20260508054024 | 56 | 188 | 4.3 | 8.7 | 0.00 | 0.00 | 0.00 | 60 | 1008.3 |
| 20260508053522 | 56 | 171 | 5.2 | 8.7 | 0.00 | 0.00 | 0.00 | 60 | 1008.3 |
| 20260508053050 | 56 | 202 | 4.3 | 10.4 | 0.00 | 0.00 | 0.00 | 60 | 1008.3 |
| 20260508052522 | 56 | 188 | 6.1 | 10.4 | 0.00 | 0.00 | 0.00 | 60 | 1008.2 |
| 20260508052021 | 56 | 161 | 6.1 | 12.2 | 0.00 | 0.00 | 0.00 | 59 | 1008.4 |
| 20260508051541 | 57 | 185 | 7.0 | 12.2 | 0.00 | 0.00 | 0.00 | 59 | 1008.4 |
| 20260508051023 | 57 | 178 | 7.0 | 11.3 | 0.00 | 0.00 | 0.00 | 59 | 1008.3 |
| 20260508050523 | 57 | 200 | 7.0 | 11.3 | 0.00 | 0.00 | 0.00 | 58 | 1008.4 |
| 20260508050039 | 57 | 165 | 6.1 | 10.4 | 0.00 | 0.00 | 0.00 | 58 | 1008.3 |
| 20260508045522 | 57 | 190 | 6.1 | 10.4 | 0.00 | 0.00 | 0.00 | 58 | 1008.5 |
| 20260508045023 | 57 | 177 | 6.1 | 10.4 | 0.00 | 0.00 | 0.00 | 57 | 1008.5 |
| 20260508044537 | 58 | 200 | 6.1 | 12.2 | 0.00 | 0.00 | 0.00 | 57 | 1008.4 |
| 20260508044024 | 58 | 197 | 6.1 | 12.2 | 0.00 | 0.00 | 0.00 | 57 | 1008.6 |
| 20260508043522 | 58 | 172 | 6.1 | 13.9 | 0.00 | 0.00 | 0.00 | 57 | 1008.6 |
| 20260508043038 | 58 | 175 | 7.0 | 13.9 | 0.00 | 0.00 | 0.00 | 56 | 1008.6 |
| 20260508042522 | 58 | 167 | 7.0 | 12.2 | 0.00 | 0.00 | 0.00 | 56 | 1008.7 |
| 20260508042022 | 58 | 192 | 6.1 | 10.4 | 0.00 | 0.00 | 0.00 | 56 | 1008.7 |
| 20260508041545 | 59 | 161 | 6.1 | 11.3 | 0.00 | 0.00 | 0.00 | 55 | 1008.7 |
| 20260508041022 | 59 | 179 | 7.0 | 12.2 | 0.00 | 0.00 | 0.00 | 55 | 1008.7 |
| 20260508040522 | 59 | 186 | 6.1 | 13.0 | 0.00 | 0.00 | 0.00 | 54 | 1008.9 |
| 20260508040036 | 59 | 188 | 6.1 | 13.0 | 0.00 | 0.00 | 0.00 | 54 | 1008.9 |
| 20260508035522 | 59 | 206 | 7.0 | 12.2 | 0.00 | 0.00 | 0.00 | 54 | 1008.8 |
| 20260508035022 | 60 | 198 | 7.0 | 11.3 | 0.00 | 0.00 | 0.00 | 53 | 1009.0 |
| 20260508034547 | 60 | 178 | 6.1 | 10.4 | 0.00 | 0.00 | 0.00 | 52 | 1008.9 |
| 20260508034022 | 60 | 167 | 5.2 | 9.6 | 0.00 | 0.00 | 0.00 | 52 | 1009.0 |
| 20260508033522 | 61 | 186 | 6.1 | 12.2 | 0.00 | 0.00 | 0.00 | 51 | 1009.0 |
| 20260508033039 | 61 | 196 | 7.0 | 13.0 | 0.00 | 0.00 | 0.00 | 51 | 1008.9 |
| 20260508032523 | 61 | 179 | 7.0 | 14.8 | 0.00 | 0.00 | 0.00 | 51 | 1008.9 |
| 20260508032023 | 61 | 145 | 8.7 | 14.8 | 0.00 | 0.00 | 0.00 | 50 | 1009.0 |
| 20260508031537 | 62 | 162 | 7.8 | 13.0 | 0.00 | 0.00 | 0.00 | 50 | 1008.9 |
| 20260508031022 | 62 | 158 | 7.8 | 13.9 | 0.00 | 0.00 | 0.00 | 49 | 1008.9 |
| 20260508030522 | 62 | 176 | 7.8 | 13.9 | 0.00 | 0.00 | 0.00 | 48 | 1008.9 |
| 20260508030040 | 62 | 169 | 7.8 | 13.0 | 0.00 | 0.00 | 0.00 | 48 | 1009.0 |
| 20260508025523 | 63 | 200 | 7.0 | 13.0 | 0.00 | 0.00 | 0.00 | 47 | 1008.9 |
| 20260508025022 | 63 | 169 | 6.1 | 11.3 | 0.00 | 0.00 | 0.00 | 47 | 1009.0 |
| 20260508024544 | 63 | 179 | 7.0 | 12.2 | 0.00 | 0.00 | 0.00 | 46 | 1008.9 |
| 20260508024023 | 63 | 171 | 7.0 | 12.2 | 0.00 | 0.00 | 0.00 | 46 | 1008.8 |
| 20260508023523 | 64 | 209 | 7.0 | 13.9 | 0.00 | 0.00 | 0.00 | 45 | 1008.8 |
| 20260508023037 | 64 | 177 | 7.8 | 14.8 | 0.00 | 0.00 | 0.00 | 44 | 1008.7 |
| 20260508022526 | 64 | 190 | 7.8 | 14.8 | 0.00 | 0.00 | 0.00 | 44 | 1008.7 |
| 20260508022025 | 64 | 143 | 7.8 | 13.9 | 0.00 | 0.00 | 0.00 | 43 | 1008.6 |
| 20260508021537 | 64 | 187 | 8.7 | 16.5 | 0.00 | 0.00 | 0.00 | 43 | 1008.7 |
| 20260508021026 | 64 | 197 | 8.7 | 16.5 | 0.00 | 0.00 | 0.00 | 43 | 1008.5 |
| 20260508020522 | 64 | 158 | 8.7 | 16.5 | 0.00 | 0.00 | 0.00 | 42 | 1008.5 |
| 20260508020038 | 64 | 175 | 7.8 | 16.5 | 0.00 | 0.00 | 0.00 | 42 | 1008.4 |
| 20260508015522 | 64 | 180 | 6.1 | 10.4 | 0.00 | 0.00 | 0.00 | 42 | 1008.3 |
| 20260508015022 | 64 | 175 | 6.1 | 10.4 | 0.00 | 0.00 | 0.00 | 41 | 1008.2 |
| 20260508014539 | 65 | 161 | 6.1 | 11.3 | 0.00 | 0.00 | 0.00 | 41 | 1008.1 |
| 20260508014023 | 65 | 207 | 6.1 | 11.3 | 0.00 | 0.00 | 0.00 | 40 | 1008.1 |
| 20260508013522 | 66 | 169 | 6.1 | 10.4 | 0.00 | 0.00 | 0.00 | 40 | 1008.0 |
| 20260508013037 | 66 | 157 | 5.2 | 9.6 | 0.00 | 0.00 | 0.00 | 39 | 1008.0 |
| 20260508012525 | 67 | 162 | 5.2 | 9.6 | 0.00 | 0.00 | 0.00 | 38 | 1007.9 |
| 20260508012023 | 68 | 144 | 5.2 | 9.6 | 0.00 | 0.00 | 0.00 | 38 | 1008.0 |
| 20260508011532 | 68 | 189 | 6.1 | 10.4 | 0.00 | 0.00 | 0.00 | 37 | 1007.9 |
| 20260508011022 | 69 | 188 | 6.1 | 10.4 | 0.00 | 0.00 | 0.00 | 36 | 1007.9 |
| 20260508010523 | 70 | 180 | 5.2 | 11.3 | 0.00 | 0.00 | 0.00 | 36 | 1007.9 |
| 20260508010048 | 71 | 180 | 7.0 | 11.3 | 0.00 | 0.00 | 0.00 | 35 | 1007.8 |
| 20260508005521 | 71 | 184 | 6.1 | 10.4 | 0.00 | 0.00 | 0.00 | 34 | 1007.8 |
| 20260508005023 | 72 | 183 | 6.1 | 10.4 | 0.00 | 0.00 | 0.00 | 34 | 1007.8 |
| 20260508004537 | 73 | 190 | 5.2 | 10.4 | 0.00 | 0.00 | 0.00 | 33 | 1007.8 |
| 20260508004021 | 73 | 173 | 6.1 | 10.4 | 0.00 | 0.00 | 0.00 | 32 | 1007.8 |
| 20260508003520 | 74 | 182 | 5.2 | 11.3 | 0.00 | 0.00 | 0.00 | 32 | 1007.8 |
| 20260508003039 | 74 | 196 | 7.0 | 13.9 | 0.00 | 0.00 | 0.00 | 31 | 1007.9 |
| 20260508002522 | 74 | 205 | 7.8 | 14.8 | 0.00 | 0.00 | 0.00 | 31 | 1007.9 |
| 20260508002021 | 75 | 188 | 6.1 | 14.8 | 0.00 | 0.00 | 0.00 | 31 | 1007.8 |
| 20260508001537 | 75 | 188 | 7.0 | 15.6 | 0.00 | 0.00 | 0.00 | 31 | 1007.9 |
| 20260508001023 | 75 | 169 | 8.7 | 15.6 | 0.00 | 0.00 | 0.00 | 30 | 1007.9 |
| 20260508000529 | 75 | 197 | 6.1 | 13.0 | 0.00 | 0.00 | 0.00 | 29 | 1007.9 |
| 20260508000038 | 75 | 268 | 5.2 | 11.3 | 0.00 | 0.00 | 0.00 | 29 | 1007.9 |
| 20260507235523 | 75 | 178 | 5.2 | 13.0 | 0.00 | 0.00 | 0.00 | 30 | 1008.1 |
| 20260507235020 | 75 | 216 | 7.0 | 14.8 | 0.00 | 0.00 | 0.00 | 29 | 1008.0 |
| 20260507234542 | 76 | 206 | 8.7 | 16.5 | 0.00 | 0.00 | 0.00 | 29 | 1008.0 |
| 20260507234021 | 76 | 202 | 6.1 | 16.5 | 0.00 | 0.00 | 0.00 | 29 | 1007.9 |
| 20260507233520 | 76 | 201 | 8.7 | 16.5 | 0.00 | 0.00 | 0.00 | 28 | 1008.0 |
| 20260507233038 | 76 | 213 | 5.2 | 13.0 | 0.00 | 0.00 | 0.00 | 30 | 1008.0 |
| 20260507232520 | 76 | 240 | 6.1 | 13.0 | 0.00 | 0.00 | 0.00 | 29 | 1008.1 |
| 20260507232020 | 76 | 237 | 7.0 | 14.8 | 0.00 | 0.00 | 0.00 | 29 | 1008.2 |
| 20260507231543 | 76 | 217 | 5.2 | 14.8 | 0.00 | 0.00 | 0.00 | 29 | 1008.2 |
| 20260507231020 | 76 | 194 | 6.1 | 14.8 | 0.00 | 0.00 | 0.00 | 29 | 1008.2 |
| 20260507230522 | 76 | 242 | 6.1 | 13.0 | 0.00 | 0.00 | 0.00 | 30 | 1008.2 |
| 20260507230041 | 77 | 192 | 7.0 | 13.0 | 0.00 | 0.00 | 0.00 | 30 | 1008.4 |
| 20260507225524 | 76 | 225 | 5.2 | 15.6 | 0.00 | 0.00 | 0.00 | 32 | 1008.5 |
| 20260507225023 | 76 | 225 | 7.0 | 15.6 | 0.00 | 0.00 | 0.00 | 29 | 1008.5 |
| 20260507224536 | 76 | 211 | 7.0 | 15.6 | 0.00 | 0.00 | 0.00 | 30 | 1008.5 |
| 20260507224021 | 76 | 219 | 6.1 | 15.6 | 0.00 | 0.00 | 0.00 | 31 | 1008.7 |
| 20260507223523 | 76 | 244 | 7.0 | 14.8 | 0.00 | 0.00 | 0.00 | 31 | 1008.6 |
| 20260507223039 | 76 | 189 | 6.1 | 14.8 | 0.00 | 0.00 | 0.00 | 30 | 1008.7 |
| 20260507222521 | 76 | 241 | 8.7 | 20.0 | 0.00 | 0.00 | 0.00 | 29 | 1008.7 |
| 20260507222020 | 76 | 220 | 8.7 | 20.0 | 0.00 | 0.00 | 0.00 | 30 | 1008.7 |
| 20260507221538 | 76 | 255 | 9.6 | 20.0 | 0.00 | 0.00 | 0.00 | 29 | 1008.9 |
| 20260507221020 | 76 | 238 | 7.8 | 13.9 | 0.00 | 0.00 | 0.00 | 30 | 1009.0 |
| 20260507220520 | 76 | 236 | 7.0 | 12.2 | 0.00 | 0.00 | 0.00 | 33 | 1008.9 |
| 20260507220039 | 75 | 228 | 6.1 | 13.0 | 0.00 | 0.00 | 0.00 | 31 | 1009.0 |
| 20260507215521 | 76 | 254 | 7.8 | 13.0 | 0.00 | 0.00 | 0.00 | 30 | 1009.1 |
| 20260507215021 | 76 | 213 | 7.0 | 13.0 | 0.00 | 0.00 | 0.00 | 30 | 1009.3 |
| 20260507214545 | 76 | 209 | 7.8 | 13.0 | 0.00 | 0.00 | 0.00 | 30 | 1009.1 |
| 20260507214022 | 76 | 200 | 5.2 | 13.0 | 0.00 | 0.00 | 0.00 | 31 | 1009.1 |
| 20260507213523 | 75 | 202 | 7.8 | 15.6 | 0.00 | 0.00 | 0.00 | 32 | 1009.2 |
| 20260507213037 | 75 | 232 | 7.0 | 16.5 | 0.00 | 0.00 | 0.00 | 30 | 1009.2 |
| 20260507212524 | 76 | 248 | 7.8 | 16.5 | 0.00 | 0.00 | 0.00 | 31 | 1009.5 |
| 20260507212023 | 75 | 241 | 7.8 | 16.5 | 0.00 | 0.00 | 0.00 | 32 | 1009.4 |
| 20260507211542 | 75 | 191 | 7.0 | 15.6 | 0.00 | 0.00 | 0.00 | 32 | 1009.5 |
| 20260507211022 | 74 | 219 | 8.7 | 17.4 | 0.00 | 0.00 | 0.00 | 32 | 1009.6 |
| 20260507210523 | 75 | 217 | 7.0 | 17.4 | 0.00 | 0.00 | 0.00 | 32 | 1009.7 |
| 20260507210040 | 75 | 234 | 7.8 | 14.8 | 0.00 | 0.00 | 0.00 | 31 | 1009.9 |
| 20260507205523 | 74 | 218 | 8.7 | 16.5 | 0.00 | 0.00 | 0.00 | 33 | 1010.0 |